Total_Precipitation_Accumulation
1.47 1.45 1.40 1.45 1.41 1.33 1.27 1.18 1.03 0.92 0.81 0.71 0.63 0.60 0.57 0.53 0.51 0.52 0.51 0.53 0.58 0.61 0.60 0.66 0.75 0.81 0.92 1.00 1.06 1.08 1.12 1.11 1.14 1.09 1.03 1.00 0.96 0.92 0.91 0.81 0.75 0.72 0.68
1.02 1.03 1.08 1.12 1.14 1.08 0.99 0.89 0.75 0.67 0.62 0.58 0.52 0.53 0.53 0.50 0.48 0.47 0.45 0.44 0.43 0.44 0.45 0.50 0.56 0.59 0.66 0.70 0.75 0.80 0.85 0.90 0.94 1.04 1.08 1.00 0.95 0.89 0.82 0.73 0.59 0.53 0.54
0.73 0.77 0.86 0.89 0.91 0.87 0.77 0.74 0.67 0.57 0.53 0.52 0.48 0.47 0.46 0.46 0.43 0.41 0.40 0.35 0.32 0.33 0.35 0.38 0.42 0.44 0.47 0.49 0.53 0.55 0.61 0.70 0.84 0.96 1.02 0.97 0.90 0.79 0.71 0.60 0.52 0.54 0.42
0.65 0.70 0.77 0.77 0.77 0.75 0.66 0.58 0.54 0.49 0.49 0.49 0.46 0.41 0.35 0.32 0.30 0.33 0.36 0.31 0.28 0.27 0.28 0.30 0.33 0.35 0.36 0.38 0.39 0.43 0.50 0.62 0.75 0.84 0.84 0.79 0.74 0.65 0.65 0.60 0.53 0.48 0.42
0.73 0.72 0.72 0.68 0.66 0.66 0.63 0.57 0.50 0.45 0.42 0.40 0.36 0.34 0.30 0.27 0.27 0.29 0.31 0.29 0.28 0.26 0.24 0.23 0.26 0.30 0.34 0.34 0.34 0.40 0.47 0.58 0.66 0.70 0.69 0.62 0.56 0.58 0.60 0.55 0.50 0.45 0.37
0.76 0.72 0.70 0.68 0.65 0.61 0.59 0.56 0.51 0.45 0.38 0.36 0.32 0.30 0.29 0.26 0.27 0.27 0.26 0.30 0.32 0.32 0.27 0.23 0.23 0.23 0.27 0.29 0.31 0.37 0.45 0.49 0.52 0.55 0.55 0.54 0.49 0.52 0.56 0.53 0.52 0.52 0.48
0.83 0.79 0.77 0.70 0.64 0.60 0.51 0.48 0.47 0.46 0.39 0.35 0.30 0.28 0.31 0.30 0.28 0.24 0.25 0.31 0.34 0.35 0.33 0.30 0.24 0.21 0.27 0.30 0.30 0.31 0.36 0.37 0.42 0.49 0.52 0.51 0.51 0.56 0.63 0.62 0.60 0.59 0.54
0.87 0.82 0.74 0.64 0.56 0.53 0.52 0.48 0.43 0.41 0.39 0.36 0.32 0.30 0.30 0.29 0.28 0.26 0.26 0.28 0.35 0.34 0.32 0.32 0.31 0.31 0.29 0.28 0.24 0.26 0.31 0.36 0.39 0.42 0.52 0.51 0.46 0.50 0.59 0.62 0.59 0.56 0.54
0.74 0.69 0.63 0.59 0.56 0.55 0.54 0.54 0.49 0.43 0.39 0.34 0.33 0.32 0.33 0.31 0.29 0.26 0.26 0.27 0.30 0.26 0.24 0.27 0.27 0.27 0.26 0.29 0.26 0.30 0.33 0.38 0.37 0.42 0.46 0.47 0.50 0.53 0.55 0.57 0.63 0.68 0.66
0.59 0.57 0.51 0.51 0.52 0.55 0.49 0.49 0.45 0.42 0.39 0.32 0.32 0.34 0.34 0.35 0.30 0.26 0.26 0.23 0.25 0.22 0.22 0.24 0.25 0.21 0.19 0.19 0.20 0.28 0.40 0.40 0.38 0.41 0.56 0.72 0.77 0.74 0.64 0.63 0.72 0.76 0.76
0.41 0.46 0.48 0.48 0.48 0.48 0.46 0.47 0.46 0.43 0.41 0.37 0.36 0.37 0.35 0.33 0.30 0.26 0.24 0.22 0.21 0.20 0.21 0.23 0.25 0.18 0.15 0.15 0.19 0.27 0.35 0.34 0.39 0.54 0.73 0.84 0.82 0.73 0.64 0.61 0.66 0.73 0.78
0.38 0.46 0.49 0.48 0.41 0.42 0.47 0.49 0.46 0.43 0.39 0.38 0.38 0.38 0.33 0.30 0.27 0.24 0.23 0.20 0.16 0.18 0.20 0.20 0.21 0.19 0.16 0.17 0.20 0.25 0.27 0.35 0.49 0.67 0.77 0.75 0.63 0.52 0.49 0.48 0.50 0.55 0.65
0.43 0.47 0.47 0.43 0.41 0.42 0.45 0.47 0.46 0.42 0.35 0.34 0.36 0.37 0.33 0.29 0.25 0.20 0.19 0.17 0.14 0.14 0.17 0.18 0.20 0.22 0.23 0.31 0.33 0.30 0.34 0.48 0.58 0.66 0.69 0.63 0.52 0.44 0.39 0.39 0.39 0.46 0.50
0.47 0.47 0.46 0.45 0.44 0.40 0.37 0.37 0.38 0.37 0.32 0.30 0.30 0.28 0.26 0.26 0.20 0.15 0.15 0.16 0.15 0.15 0.16 0.23 0.32 0.37 0.39 0.43 0.47 0.51 0.53 0.52 0.50 0.57 0.58 0.50 0.41 0.37 0.35 0.32 0.36 0.41 0.47
0.43 0.41 0.42 0.42 0.41 0.38 0.31 0.28 0.28 0.23 0.15 0.16 0.16 0.15 0.17 0.17 0.12 0.12 0.14 0.16 0.14 0.15 0.17 0.30 0.47 0.51 0.51 0.50 0.48 0.49 0.51 0.48 0.48 0.48 0.46 0.44 0.40 0.36 0.33 0.29 0.31 0.34 0.42
0.39 0.36 0.32 0.33 0.33 0.28 0.26 0.24 0.18 0.10 0.07 0.05 0.05 0.05 0.07 0.10 0.09 0.07 0.10 0.14 0.14 0.16 0.22 0.41 0.50 0.51 0.51 0.46 0.42 0.39 0.38 0.38 0.37 0.37 0.38 0.38 0.38 0.35 0.34 0.30 0.28 0.31 0.36
0.31 0.27 0.23 0.21 0.23 0.22 0.20 0.24 0.26 0.14 0.05 0.03 0.03 0.05 0.07 0.10 0.09 0.08 0.09 0.13 0.15 0.18 0.26 0.37 0.42 0.45 0.46 0.41 0.38 0.36 0.34 0.31 0.29 0.30 0.32 0.32 0.31 0.30 0.29 0.29 0.27 0.29 0.32
0.19 0.15 0.15 0.16 0.16 0.14 0.14 0.15 0.18 0.22 0.20 0.16 0.08 0.05 0.08 0.10 0.11 0.10 0.11 0.16 0.22 0.22 0.26 0.30 0.33 0.36 0.38 0.36 0.33 0.29 0.27 0.25 0.24 0.24 0.25 0.27 0.28 0.28 0.25 0.25 0.25 0.25 0.28
0.15 0.13 0.11 0.09 0.09 0.09 0.09 0.08 0.09 0.11 0.18 0.22 0.19 0.11 0.09 0.11 0.13 0.14 0.14 0.16 0.20 0.22 0.24 0.25 0.25 0.25 0.26 0.28 0.29 0.28 0.25 0.23 0.21 0.21 0.21 0.22 0.23 0.25 0.25 0.21 0.19 0.15 0.20
0.13 0.09 0.07 0.06 0.06 0.06 0.05 0.05 0.06 0.08 0.12 0.17 0.17 0.12 0.11 0.17 0.21 0.18 0.14 0.13 0.14 0.16 0.19 0.21 0.21 0.21 0.21 0.20 0.19 0.19 0.19 0.18 0.16 0.17 0.19 0.20 0.20 0.20 0.19 0.17 0.16 0.17 0.17
0.06 0.04 0.03 0.03 0.04 0.03 0.03 0.02 0.03 0.05 0.10 0.12 0.09 0.07 0.12 0.18 0.22 0.20 0.17 0.15 0.15 0.16 0.18 0.18 0.17 0.18 0.17 0.15 0.12 0.12 0.12 0.12 0.13 0.14 0.16 0.18 0.17 0.15 0.13 0.11 0.09 0.08 0.08
0.03 0.02 0.01 0.01 0.01 0.01 0.02 0.02 0.02 0.04 0.06 0.07 0.06 0.06 0.10 0.14 0.17 0.18 0.17 0.16 0.16 0.17 0.18 0.17 0.16 0.15 0.14 0.13 0.11 0.10 0.10 0.11 0.13 0.15 0.16 0.17 0.14 0.09 0.07 0.05 0.05 0.04 0.03
0.01 0.01 0.01 0.01 0.01 0.01 0.01 0.01 0.01 0.01 0.02 0.03 0.04 0.05 0.06 0.09 0.12 0.16 0.17 0.15 0.15 0.15 0.14 0.13 0.12 0.12 0.11 0.09 0.09 0.09 0.09 0.09 0.10 0.12 0.15 0.15 0.10 0.06 0.05 0.04 0.03 0.03 0.02
0.00 0.00 0.01 0.01 0.01 0.01 0.01 0.01 0.01 0.01 0.01 0.02 0.03 0.05 0.06 0.07 0.09 0.14 0.19 0.19 0.16 0.14 0.12 0.09 0.08 0.09 0.08 0.06 0.06 0.05 0.05 0.05 0.06 0.09 0.12 0.12 0.07 0.04 0.03 0.03 0.03 0.03 0.03
0.00 0.00 0.00 0.00 0.00 0.00 0.00 0.00 0.01 0.01 0.01 0.01 0.02 0.03 0.04 0.03 0.05 0.09 0.15 0.19 0.19 0.15 0.10 0.07 0.05 0.04 0.04 0.04 0.03 0.02 0.03 0.03 0.03 0.06 0.10 0.11 0.06 0.04 0.03 0.02 0.02 0.02 0.03
0.00 0.00 0.00 0.00 0.00 0.00 0.00 0.00 0.00 0.00 0.00 0.01 0.01 0.02 0.02 0.02 0.03 0.05 0.07 0.11 0.15 0.14 0.10 0.06 0.04 0.02 0.01 0.01 0.01 0.01 0.01 0.01 0.01 0.02 0.06 0.09 0.05 0.04 0.02 0.02 0.02 0.02 0.03